RNR224 LOWK-LOWS

Flight info

Callsign RNR224
Flight time N/A
Altitude 16000
Route INGID DCT ETROK
Aircraft B738/M-SDE2E3FGHIRWXY/LB1

Departure

Time 2026-04-26 17:40
Airport Klagenfurt Airport (LOWK)

Arrival

Time N/A
Airport Salzburg Airport (LOWS)
Time Latitude Longitude Altitude Speed Heading
2026-04-26 17:13 46.64940 14.32669 1478 ft 0 kts 77°
2026-04-26 17:30 46.64938 14.32656 1478 ft 2 kts 77°
2026-04-26 17:30 46.64934 14.32634 1478 ft 2 kts 77°
2026-04-26 17:30 46.64931 14.32611 1478 ft 2 kts 77°
2026-04-26 17:31 46.64927 14.32588 1478 ft 2 kts 77°
2026-04-26 17:31 46.64923 14.32565 1478 ft 2 kts 77°
2026-04-26 17:31 46.64920 14.32543 1478 ft 2 kts 77°
2026-04-26 17:31 46.64916 14.32520 1478 ft 2 kts 77°
2026-04-26 17:32 46.64912 14.32497 1478 ft 2 kts 77°
2026-04-26 17:32 46.64909 14.32475 1478 ft 2 kts 77°
2026-04-26 17:32 46.64906 14.32453 1478 ft 2 kts 96°
2026-04-26 17:32 46.64912 14.32435 1478 ft 2 kts 146°
2026-04-26 17:33 46.64926 14.32428 1478 ft 2 kts 166°
2026-04-26 17:33 46.64941 14.32422 1478 ft 2 kts 165°
2026-04-26 17:33 46.64948 14.32420 1478 ft 0 kts 165°
2026-04-26 17:35 46.64936 14.32424 1478 ft 4 kts 165°
2026-04-26 17:35 46.64895 14.32440 1478 ft 8 kts 165°
2026-04-26 17:35 46.64828 14.32464 1478 ft 10 kts 171°
2026-04-26 17:36 46.64779 14.32467 1478 ft 5 kts 181°
2026-04-26 17:36 46.64741 14.32463 1478 ft 7 kts 186°
2026-04-26 17:36 46.64676 14.32448 1478 ft 12 kts 191°
2026-04-26 17:36 46.64586 14.32416 1478 ft 15 kts 194°
2026-04-26 17:37 46.64558 14.32292 1478 ft 16 kts 288°
2026-04-26 17:37 46.64596 14.32192 1478 ft 16 kts 315°
2026-04-26 17:37 46.64597 14.32099 1478 ft 4 kts 154°
2026-04-26 17:38 46.64588 14.32114 1478 ft 2 kts 121°
2026-04-26 17:38 46.64563 14.32209 1478 ft 17 kts 110°
2026-04-26 17:38 46.64558 14.32229 1478 ft 0 kts 110°
2026-04-26 17:38 46.64546 14.32273 1478 ft 10 kts 110°
2026-04-26 17:39 46.64512 14.32431 1478 ft 27 kts 106°
2026-04-26 17:39 46.64406 14.32999 1478 ft 90 kts 106°
2026-04-26 17:39 46.64178 14.34138 1481 ft 145 kts 106°
2026-04-26 17:39 46.63878 14.35642 1859 ft 161 kts 106°
2026-04-26 17:40 46.63563 14.37226 2567 ft 162 kts 106°
2026-04-26 17:40 46.63351 14.38271 3046 ft 164 kts 106°
2026-04-26 17:40 46.62880 14.40586 3727 ft 198 kts 106°
2026-04-26 17:40 46.62460 14.42648 4091 ft 227 kts 106°
2026-04-26 17:41 46.62091 14.44959 4584 ft 252 kts 94°
2026-04-26 17:41 46.62416 14.47594 5333 ft 264 kts 65°
2026-04-26 17:41 46.63510 14.49629 6685 ft 254 kts 43°
2026-04-26 17:41 46.65103 14.50811 7704 ft 265 kts 18°
2026-04-26 17:42 46.66962 14.50897 8737 ft 273 kts 353°
2026-04-26 17:42 46.68709 14.49863 9776 ft 280 kts 332°
2026-04-26 17:42 46.70229 14.48022 10649 ft 293 kts 317°
2026-04-26 17:42 46.71686 14.45730 11113 ft 315 kts 317°
2026-04-26 17:43 46.73226 14.43388 11648 ft 330 kts 317°
2026-04-26 17:43 46.74799 14.40966 12682 ft 328 kts 316°
2026-04-26 17:43 46.76354 14.38558 13842 ft 322 kts 315°
2026-04-26 17:43 46.77880 14.36190 14900 ft 320 kts 315°
2026-04-26 17:44 46.79409 14.33813 15534 ft 320 kts 314°
2026-04-26 17:44 46.80935 14.31442 15870 ft 320 kts 314°
2026-04-26 17:44 46.82455 14.29074 15995 ft 318 kts 314°
2026-04-26 17:44 46.83993 14.26779 15999 ft 316 kts 316°
2026-04-26 17:45 46.85594 14.24586 15999 ft 314 kts 317°
2026-04-26 17:45 46.87208 14.22439 16000 ft 313 kts 318°
2026-04-26 17:45 46.88796 14.20322 16000 ft 314 kts 317°
2026-04-26 17:45 46.90408 14.18164 16000 ft 314 kts 317°
2026-04-26 17:46 46.92015 14.16004 16000 ft 313 kts 317°
2026-04-26 17:46 46.93618 14.13845 16000 ft 313 kts 317°
2026-04-26 17:46 46.95224 14.11675 16000 ft 313 kts 317°
2026-04-26 17:46 46.96824 14.09508 16000 ft 313 kts 317°
2026-04-26 17:47 46.98427 14.07334 16000 ft 313 kts 317°
2026-04-26 17:47 46.99485 14.05897 16000 ft 313 kts 317°
2026-04-26 17:47 47.01613 14.03003 16000 ft 313 kts 317°
2026-04-26 17:47 47.03214 14.00829 16000 ft 313 kts 317°
2026-04-26 17:48 47.04819 13.98685 16000 ft 313 kts 317°
2026-04-26 17:48 47.06444 13.96500 16000 ft 313 kts 317°
2026-04-26 17:48 47.08019 13.94371 16000 ft 313 kts 317°
2026-04-26 17:48 47.09622 13.92194 16000 ft 313 kts 317°
2026-04-26 17:49 47.11226 13.90007 16000 ft 313 kts 317°
2026-04-26 17:49 47.12816 13.87833 16000 ft 313 kts 317°
2026-04-26 17:49 47.14412 13.85648 16000 ft 313 kts 317°
2026-04-26 17:49 47.16000 13.83468 16000 ft 313 kts 317°
2026-04-26 17:50 47.17595 13.81277 16000 ft 313 kts 317°
2026-04-26 17:50 47.19189 13.79084 16000 ft 313 kts 317°
2026-04-26 17:50 47.20785 13.76886 16000 ft 313 kts 317°
2026-04-26 17:50 47.22370 13.74702 16000 ft 313 kts 317°
2026-04-26 17:51 47.23943 13.72536 15999 ft 307 kts 317°
2026-04-26 17:51 47.25489 13.70405 15999 ft 302 kts 317°
2026-04-26 17:51 47.27026 13.68307 15998 ft 299 kts 319°
2026-04-26 17:51 47.28633 13.66372 16000 ft 298 kts 322°
2026-04-26 17:52 47.30268 13.64568 15848 ft 297 kts 323°
2026-04-26 17:52 47.31933 13.62779 15644 ft 294 kts 324°
2026-04-26 17:52 47.33568 13.61004 15380 ft 290 kts 324°
2026-04-26 17:52 47.35181 13.59239 15105 ft 287 kts 324°
2026-04-26 17:53 47.36772 13.57486 14827 ft 284 kts 324°
2026-04-26 17:53 47.38346 13.55741 14547 ft 282 kts 324°
2026-04-26 17:53 47.39907 13.54005 14269 ft 280 kts 324°
2026-04-26 17:54 47.42988 13.50564 13715 ft 276 kts 325°
2026-04-26 17:54 47.44488 13.48883 13444 ft 274 kts 325°
2026-04-26 17:54 47.46001 13.47186 13171 ft 272 kts 325°
2026-04-26 17:54 47.47520 13.45480 12897 ft 276 kts 325°
2026-04-26 17:55 47.49068 13.43740 12620 ft 283 kts 326°
2026-04-26 17:55 47.50653 13.41957 12336 ft 287 kts 326°
2026-04-26 17:55 47.52254 13.40157 12049 ft 290 kts 326°
2026-04-26 17:55 47.53872 13.38350 11759 ft 292 kts 327°
2026-04-26 17:56 47.55562 13.36719 11471 ft 288 kts 332°
2026-04-26 17:56 47.59039 13.33815 10903 ft 286 kts 335°
2026-04-26 17:57 47.62508 13.30984 10409 ft 286 kts 335°
2026-04-26 17:57 47.64227 13.29568 10250 ft 280 kts 335°
2026-04-26 17:57 47.65907 13.28178 10104 ft 274 kts 335°
2026-04-26 17:57 47.67564 13.26804 9884 ft 272 kts 335°
2026-04-26 17:58 47.71493 13.23554 9288 ft 270 kts 335°
2026-04-26 17:59 47.74782 13.20826 8759 ft 271 kts 335°
2026-04-26 17:59 47.76427 13.19454 8490 ft 271 kts 335°
2026-04-26 17:59 47.78083 13.18067 8217 ft 272 kts 335°
2026-04-26 17:59 47.79731 13.16684 7946 ft 272 kts 335°
2026-04-26 18:00 47.81352 13.15320 7718 ft 270 kts 335°
2026-04-26 18:00 47.82952 13.13973 7646 ft 260 kts 335°
2026-04-26 18:00 47.84496 13.12670 7560 ft 249 kts 335°
2026-04-26 18:00 47.85573 13.11761 7509 ft 242 kts 335°
2026-04-26 18:01 47.87009 13.10547 7434 ft 233 kts 335°
2026-04-26 18:01 47.88402 13.09369 7228 ft 230 kts 335°
2026-04-26 18:01 47.89799 13.08186 6933 ft 232 kts 335°
2026-04-26 18:01 47.91213 13.06989 6661 ft 232 kts 335°
2026-04-26 18:02 47.92616 13.05800 6417 ft 231 kts 335°
2026-04-26 18:02 47.93525 13.05030 6316 ft 227 kts 334°
2026-04-26 18:02 47.95354 13.03481 6057 ft 222 kts 334°
2026-04-26 18:02 47.96550 13.02095 5813 ft 226 kts 308°
2026-04-26 18:03 47.96979 12.99836 5623 ft 226 kts 268°
2026-04-26 18:03 47.96351 12.97794 5589 ft 216 kts 225°
2026-04-26 18:03 47.95058 12.96910 5578 ft 208 kts 182°
2026-04-26 18:03 47.93729 12.97496 5515 ft 200 kts 143°
2026-04-26 18:04 47.92696 12.98879 5457 ft 200 kts 135°
2026-04-26 18:04 47.91634 13.00212 5353 ft 198 kts 140°
2026-04-26 18:04 47.90562 13.01403 5255 ft 187 kts 142°
2026-04-26 18:05 47.88572 13.03562 5061 ft 170 kts 142°
2026-04-26 18:05 47.87571 13.04470 4871 ft 168 kts 155°
2026-04-26 18:05 47.86469 13.04955 4774 ft 164 kts 167°
2026-04-26 18:05 47.85365 13.05260 4552 ft 159 kts 170°
2026-04-26 18:06 47.84311 13.05543 4360 ft 150 kts 169°
2026-04-26 18:06 47.83300 13.05832 4130 ft 146 kts 169°
2026-04-26 18:06 47.82306 13.06122 3924 ft 145 kts 169°
2026-04-26 18:06 47.81327 13.06412 3729 ft 145 kts 168°
2026-04-26 18:07 47.80339 13.06707 3533 ft 145 kts 168°
2026-04-26 18:07 47.79352 13.07000 3339 ft 144 kts 168°
2026-04-26 18:07 47.78370 13.07293 3145 ft 144 kts 168°
2026-04-26 18:07 47.77718 13.07464 3011 ft 144 kts 172°
2026-04-26 18:08 47.76405 13.07356 2756 ft 143 kts 191°
2026-04-26 18:08 47.75512 13.06699 2534 ft 143 kts 220°
2026-04-26 18:08 47.74991 13.05462 2384 ft 142 kts 249°
2026-04-26 18:08 47.74989 13.04016 2231 ft 142 kts 285°
2026-04-26 18:09 47.75530 13.02811 2104 ft 143 kts 319°
2026-04-26 18:09 47.76434 13.02228 1971 ft 142 kts 339°
2026-04-26 18:09 47.77342 13.01645 1697 ft 142 kts 339°
2026-04-26 18:09 47.78247 13.01082 1471 ft 140 kts 336°